Location: Newark
(15.4608°S, 41.1635°W)
Time: 10:15:37
(UTC+00:00)

Envisat - Visible Passes

Search period start: 18 June 2021 00:00
Search period end: 28 June 2021 00:00
Orbit: 764 x 766 km, 98.1° (Epoch: 17 June)

Date Brightness Start Highest point End Pass type
(mag) Time Alt. Az. Time Alt. Az. Time Alt. Az.
18 Jun 3.6 07:19:07 10° NNE 07:24:04 55° ESE 07:27:58 16° S visible
19 Jun 5.2 06:43:45 10° ENE 06:47:26 20° ESE 06:50:39 12° SSE visible
19 Jun 4.0 08:21:58 10° NNW 08:26:10 26° W 08:30:24 10° SW visible
19 Jun 5.4 20:44:48 10° SSW 20:48:48 23° WSW 20:52:45 10° NW visible
20 Jun 2.9 07:44:18 10° N 07:49:20 73° WNW 07:53:31 16° SSW visible
21 Jun 4.2 07:07:54 10° NE 07:12:37 40° ESE 07:16:11 17° SSE visible
21 Jun 5.9 21:12:22 10° SW 21:13:56 11° WSW 21:15:31 10° W visible
22 Jun 5.6 06:33:13 10° ENE 06:36:03 15° ESE 06:38:53 10° SE visible
22 Jun 3.6 08:10:05 10° NNW 08:14:41 35° W 08:19:04 11° SW visible
23 Jun 3.0 07:32:49 10° NNE 07:37:54 83° ESE 07:41:45 18° S visible
24 Jun 4.7 06:56:51 10° NE 07:01:13 30° ESE 07:04:26 16° SSE visible
24 Jun 4.5 08:36:45 10° NW 08:40:03 18° W 08:43:24 10° WSW visible
24 Jun 5.7 20:59:35 10° SW 21:02:34 16° WSW 21:05:32 10° WNW visible
25 Jun 5.8 06:23:28 10° E 06:24:41 11° ESE 06:25:53 10° ESE visible
25 Jun 3.2 07:58:21 10° N 08:03:12 48° W 08:07:18 15° SSW visible
26 Jun 3.4 07:21:28 10° NNE 07:26:27 61° ESE 07:30:00 19° S visible
27 Jun 5.1 06:45:56 10° NE 06:49:49 22° ESE 06:52:41 14° SSE visible
27 Jun 4.1 08:24:34 10° NNW 08:28:34 24° W 08:32:38 10° SW visible
27 Jun 5.5 20:47:24 10° SSW 20:51:11 21° WSW 20:54:57 10° WNW visible
